Find Starlink 30138

NORAD ID: 57605 Int'l Des: 2023-119 Owner: SPXS Country: US Constellation: starlink operational
LEOCIRCULAR

現在のビュー

3D地球を読み込み中...

About Starlink 30138

Starlink 30138 (NORAD 57605) is a starlink constellation satellite (v2 mini) launched Aug 11, 2023 by SPXS of US. It operates in LEO, CIRCULAR orbit with a mass of 730.00 kg.

次回通過

Passes for default location (London). Set your location on the main map for personalized predictions.

高度履歴

Loading altitude history...

軌道要素

1 57605U 23119D 26252.35199964 -.00000211 00000-0 18660-5 0 9993
2 57605 43.0040 124.4862 0001280 261.3185 98.7521 15.27574747171178
Epoch: Sep 9, 2026 • Age: 23 hours

現在のステータス

高度 484.9 km
遠地点 / 近地点 N/A
速度 7.62 km/s
衛星直下点 -12.16°S, 146.15°W
打ち上げ日 Aug 11, 2023
運用期間 3 years
タイプ internet

技術仕様

分類 Payload
質量 730.00 kg
乾燥質量 700.00 kg
総質量 730.00 kg
長さ 0.30 m
直径 4.10 m
スパン 29.00 m
形状 Box + pan
製造者 SPXS
バスタイプ Starlink V2M
フェーズステータス In Orbit
所有者/国 SPXS/US

Most Searched